Aérodrome :
LOGIN :

S'inscrire | Disclaimer

   EN    FR    IT 

 










Légende :    VFR   VFR Marginal   IFR   IFR Intensif   IFR Très Intensif
Visi : 
Plafond : 
>= 8 km
>= 3000ft
5 à 8 km
1000 à 3000 ft
1500m à 5 km
500 à 1000 ft
800 à 1500m
200 à 500 ft
< 800m
< 200 ft
Symboles :   Orages  Brouillard  Fortes neiges  Fortes précipitations  Vent > 20 kt
SIGMETs :   Divers  Orages  Givrage  Turbulence  Onde Orograph.  Cendres Volcan.






- Altitude de l'aérodrome : 53 ft
- Code IATA : LBC


EDHL - Lübeck

DERNIER METAR :
  • 231620Z 18004KT CAVOK 22/10 Q1002

METARs EXPIRÉS :
  • 231550Z 19005KT CAVOK 23/09 Q1003
  • 231520Z 18006KT CAVOK 23/10 Q1003
  • 231450Z 17006KT CAVOK 24/09 Q1003
  • 231420Z 21010KT 180V240 CAVOK 24/09 Q1003
  • 231350Z 20009KT CAVOK 24/08 Q1003

TAF TAF EDHL
Valide du 23 à 15h jusqu'au 23 à 21h UTC


231400Z 2315/2321 22006KT CAVOK
BECMG 2315/2317 16003KT



MET'MAP, la Météo Aéronautique d'un coup d'oeil ! - Copyright ORBIFLY Décembre 2007 - Disclaimer

ORBIFLY MET'MAP TEAM :

Programmation & Développement : Alexandra Zaïnal
Sur une idée originale de : Baudouin d'Aumeries
Assistance à la programmation : Marc-Olivier Méhu
Soutien technique & logistique : Manuel Goepfert

Contact : metmap@orbifly.com




SOURCES & CREDITS :

   NOAA